This is the latest recevied weather packets stored in our database for station/object K1BWE-1. If no packets are shown the sender has not sent any weather packets the latest 10 day(s).
| Time | Temp. | Humidity | Pressure | Rain* | Wind** | Luminosity | Snow |
|---|---|---|---|---|---|---|---|
| 1777369408 | 11.11° C | 40% | 1016.8 hPa | 0 mm | - | 0 W/m² | - |
| 1777369104 | 11.11° C | 40% | 1016.8 hPa | 0 mm | - | 0 W/m² | - |
| 1777368802 | 11.11° C | 39% | 1017 hPa | 0 mm | - | 0 W/m² | - |
| 1777368497 | 11.67° C | 39% | 1016.8 hPa | 0 mm | - | 0 W/m² | - |
| 1777368194 | 11.11° C | 39% | 1016.8 hPa | 0 mm | - | 0 W/m² | - |
| 1777367891 | 11.11° C | 39% | 1016.8 hPa | 0 mm | - | 0 W/m² | - |
| 1777367587 | 11.67° C | 39% | 1017.1 hPa | 0 mm | - | 0 W/m² | - |
| 1777367282 | 11.67° C | 39% | 1016.7 hPa | 0 mm | - | 0 W/m² | - |
| 1777366978 | 11.67° C | 39% | 1016.8 hPa | 0 mm | - | 0 W/m² | - |
| 1777366672 | 11.67° C | 39% | 1016.8 hPa | 0 mm | - | 0 W/m² | - |
| 1777366367 | 11.67° C | 39% | 1017.1 hPa | 0 mm | - | 0 W/m² | - |
| 1777366064 | 11.67° C | 38% | 1017 hPa | 0 mm | - | 0 W/m² | - |
| 1777365761 | 11.67° C | 38% | 1017 hPa | 0 mm | - | 0 W/m² | - |
| 1777365456 | 11.67° C | 39% | 1016.8 hPa | 0 mm | - | 0 W/m² | - |
| 1777365154 | 11.67° C | 40% | 1016.7 hPa | 0 mm | - | 0 W/m² | - |
| 1777364853 | 10.56° C | 41% | 1016.7 hPa | 0 mm | - | 0 W/m² | - |
| 1777364549 | 11.11° C | 40% | 1017.2 hPa | 0 mm | - | 0 W/m² | - |
| 1777364246 | 11.67° C | 38% | 1016.8 hPa | 0 mm | - | 0 W/m² | - |
| 1777363942 | 11.67° C | 39% | 1017 hPa | 0 mm | - | 0 W/m² | - |
| 1777363639 | 12.22° C | 38% | 1016.8 hPa | 0 mm | - | 0 W/m² | - |
| 1777363335 | 12.22° C | 38% | 1017.2 hPa | 0 mm | - | 0 W/m² | - |
| 1777363033 | 12.22° C | 38% | 1017 hPa | 0 mm | - | 0 W/m² | - |
| 1777362729 | 12.22° C | 37% | 1017.2 hPa | 0 mm | - | 0 W/m² | - |
| 1777362428 | 12.22° C | 36% | 1017.2 hPa | 0 mm | - | 0 W/m² | - |
| 1777362124 | 12.78° C | 36% | 1017.1 hPa | 0 mm | - | 0 W/m² | - |
* Rain latest hour (hover to see other rain measurements)
** Current wind speed in m/s (hover to see current wind gust speed)